Portsmouth, NH

5:46 AM EDT on July 23, 2017 (GMT -0400)
Pease International Tradeport

Weather History for KPSM - May, 2014

Change the Weather History Date:

Monday, May 26, 2014

  Actual Average Record
Temperature  
Mean Temperature 64 °F -  
Max Temperature 78 °F 65 °F 88 °F (1984)
Min Temperature 51 °F 46 °F 31 °F (1992)
Growing Degree Days 14 (Base 50)    
Moisture  
Dew Point 53 °F    
Average Humidity 66    
Maximum Humidity 100    
Minimum Humidity 38    
Precipitation  
Precipitation 0.00 in - - ()
Sea Level Pressure  
Sea Level Pressure 29.85 in    
Wind  
Wind Speed 6 mph (West)    
Max Wind Speed 16 mph    
Max Gust Speed 24 mph    
Visibility 10 miles    
Events Rain    
Averages and records for this station are not official NWS values.
T = Trace of Precipitation, MM = Missing Value Source: NWS Daily Summary

Daily Weather History Graph

Daily Weather History Graph

Search for Another Location

Airport or City:

Trip Planner

Search our weather history database for the weather conditions in past years. The results will help you decide how hot, cold, wet, or windy it might be!

Date:

Astronomy

May. 26, 2014 Rise Set
Actual Time 5:10 AM EDT 8:10 PM EDT
Civil Twilight 4:36 AM EDT 8:44 PM EDT
Nautical Twilight 3:53 AM EDT 9:28 PM EDT
Astronomical Twilight 3:02 AM EDT 10:19 PM EDT
Moon 3:54 AM EDT (5/26) 6:07 PM EDT (5/26)
Length of Visible Light 16h 08m
Length of Day
15h 00m
Waning Crescent, 5% of the Moon is Illuminated
May 26
Waning Crescent
May 28
New
Jun 5
First Quarter
Jun 13
Full
Jun 19
Last Quarter

Hourly Weather History & Observations

Time (EDT) Temp. Dew Point Humidity Pressure Visibility Wind Dir Wind Speed Gust Speed Precip Events Conditions
12:58 AM 51.6 °F 51.6 °F 100% 29.96 in 10.0 mi South 3.5 mph - N/A   Scattered Clouds
1:58 AM 51.8 °F 51.8 °F 100% 29.95 in 10.0 mi WNW 1.2 mph - N/A   Clear
2:58 AM 51.8 °F 51.8 °F 100% 29.93 in 10.0 mi WSW 6.9 mph - N/A   Scattered Clouds
3:58 AM 52.7 °F 52.7 °F 100% 29.91 in 10.0 mi West 4.6 mph - N/A   Mostly Cloudy
4:58 AM 53.8 °F 51.1 °F 91% 29.91 in 10.0 mi WSW 6.9 mph - N/A   Partly Cloudy
5:58 AM 55.9 °F 51.8 °F 86% 29.91 in 10.0 mi WSW 4.6 mph - N/A   Mostly Cloudy
6:58 AM 58.6 °F 52.5 °F 80% 29.91 in 10.0 mi WSW 8.1 mph - N/A   Mostly Cloudy
7:58 AM 61.9 °F 49.3 °F 63% 29.91 in 10.0 mi WSW 8.1 mph - N/A   Mostly Cloudy
8:58 AM 63.3 °F 52.0 °F 66% 29.90 in 10.0 mi SW 10.4 mph - N/A   Mostly Cloudy
9:58 AM 65.7 °F 52.2 °F 62% 29.87 in 10.0 mi WSW 11.5 mph - N/A   Mostly Cloudy
10:58 AM 70.9 °F 54.1 °F 55% 29.86 in 10.0 mi West 11.5 mph - N/A   Overcast
11:58 AM 75.9 °F 50.5 °F 41% 29.84 in 10.0 mi West 9.2 mph 19.6 mph N/A   Overcast
12:58 PM 77.9 °F 54.1 °F 44% 29.82 in 10.0 mi West 11.5 mph 24.2 mph N/A   Overcast
1:58 PM 74.8 °F 53.8 °F 48% 29.81 in 10.0 mi West 9.2 mph - N/A   Overcast
2:58 PM 76.6 °F 52.7 °F 43% 29.79 in 10.0 mi West 16.1 mph 21.9 mph N/A   Overcast
3:58 PM 77.0 °F 53.8 °F 44% 29.79 in 10.0 mi West 11.5 mph - N/A   Overcast
4:58 PM 78.1 °F 50.7 °F 38% 29.77 in 10.0 mi West 10.4 mph - N/A   Overcast
5:58 PM 75.7 °F 53.6 °F 46% 29.77 in 10.0 mi West 6.9 mph - N/A   Overcast
6:58 PM 74.3 °F 54.9 °F 51% 29.77 in 10.0 mi West 2.3 mph - N/A   Overcast
7:58 PM 71.6 °F 56.1 °F 58% 29.79 in 10.0 mi WNW 5.8 mph - N/A   Overcast
8:58 PM 68.7 °F 58.3 °F 69% 29.80 in 10.0 mi WNW 8.1 mph - 0.00 in Rain Light Rain
9:43 PM 68.0 °F 59.0 °F 73% 29.79 in 10.0 mi West 5.8 mph - N/A   Overcast
9:58 PM 68.2 °F 57.9 °F 70% 29.80 in 8.0 mi West 4.6 mph - 0.00 in   Overcast
10:58 PM 68.2 °F 54.9 °F 62% 29.81 in 8.0 mi Calm Calm - N/A   Overcast
11:58 PM 66.9 °F 55.6 °F 67% 29.81 in 8.0 mi West 4.6 mph - N/A   Overcast